Regional Weather Roundup
Issued by NWS Charleston, SC

Current Version | Previous Version | Graphics & Text | Print | Product List | Glossary On
Versions: 1 2 3 4 5 6 7 8 9 10 11 12 13 14 15 16 17 18 19 20 21 22 23 24 25 26 27 28 29 30 31 32 33 34 35 36 37 38 39 40 41 42 43 44 45 46 47 48 49 50
000
ASUS42 KCHS 162310
RWRCHS
REGIONAL WEATHER ROUNDUP
NATIONAL WEATHER SERVICE CHARLESTON SC
700 PM EDT WED APR 16 2014

NOTE: "FAIR" INDICATES FEW OR NO CLOUDS BELOW 12,000 FEET WITH NO
SIGNIFICANT WEATHER AND/OR OBSTRUCTIONS TO VISIBILITY.

NOT ALL STATIONS ARE QUALITY CONTROLLED BY THE NATIONAL
WEATHER SERVICE. USE DATA WITH CAUTION...ESPECIALLY
DEWPOINT OBSERVATIONS.

SCZ027-030-031-034>040-042>050-170000-
...SOUTH CAROLINA...

CITY           SKY/WX    TMP DP  RH WIND       PRES   REMARKS
N CHARLESTON   CLEAR     55  35  47 E16G23    30.32R
WATERFRONT PRK   N/A     55 N/A N/A E24         N/A
FORT JOHNSON   NOT AVBL
MOUNT PLEASANT FAIR     N/A N/A N/A E8        30.32R
JOHNS ISLAND   CLEAR     54  41  62 E14G22    30.32R
PINOPOLIS        N/A     61  32  33 NE9       30.22S
MONCKS CORNER  FAIR      59  37  44 NE7       30.30R
SUMMERVILLE    FAIR      59  34  38 NE3       30.30R
BEAUFORT MCAS  SUNNY     56  42  59 SE13      30.30S
BEAUFORT ARPT  FAIR      55  43  62 E13       30.30S
HILTON HEAD IS SUNNY     55  43  62 NE8       30.31R
GEORGETOWN     NOT AVBL
WALTERBORO     CLEAR     57  34  41 NE6       30.30S
ORANGEBURG     SUNNY     57  28  33 VRB7      30.31S
BARNWELL       FAIR      57  32  38 E8        30.30S
AIKEN          FAIR      59  34  38 E9        30.32R
MANNING        FAIR      59  19  21 NE6       30.31S
KINGSTREE      NOT AVBL
COLUMBIA       SUNNY     59  27  29 E9        30.30R
SUMTER         SUNNY     56  28  33 E9        30.31R
FLORENCE       CLEAR     56  27  32 NE10      30.33R
MYRTLE BEACH   CLEAR     54  37  54 SE14      30.34R
N MYRTLE BEACH CLEAR     53  37  54 E10       30.34R

$$

GAZ063-065-086>088-099>101-113>116-118-119-134-136>141-150-170000-
...GEORGIA...

CITY           SKY/WX    TMP DP  RH WIND       PRES   REMARKS
SAVANNAH ARPT  MOSUNNY   57  40  52 E15       30.29R
HUNTER AAF     SUNNY     56  42  61 E13       30.27S
FORT STEWART   SUNNY     56  43  61 E10       30.26S
STATESBORO     NOT AVBL
SYLVANIA       CLEAR     62  33  33 E7        30.27F
CLAXTON        FAIR      61  43  51 E7        30.26S
THOMSON        SUNNY     58  33  39 E8        30.32R
AUGUSTA-BUSH   SUNNY     59  26  28 SE8       30.28R
AUGUSTA-DANIEL SUNNY     60  26  27 E7        30.28S
SWAINSBORO     FAIR      59  34  38 SE7       30.26S
VIDALIA        SUNNY     61  36  39 E12G18    30.25R
ALMA           SUNNY     58  41  53 E12G18    30.24R
WAYCROSS       NOT AVBL
JESUP          FAIR      54  45  71 E9        30.27R
BRUNSWICK      SUNNY     55  43  62 NE17G24   30.27R
SAINT SIMONS   LGT RAIN  56  43  61 NE17G28   30.25S

$$

SCZ027-028-034-036>038-045-046-048>050-GAZ119-141-170000-
...LAKE AND SUPPLEMENTAL COASTAL OBSERVATIONS...

STATION/POSITION TIME  TEMP    WIND        PRES    WAVE   SWELL
                       AIR SEA DIR/SP/G            HT/PER HT/PER/DIR
                 (UTC) (F)     (DEG/KT/KT) (MB)    (FT/S) (FT/S/D)
UPR LAKE MARION  NOT AVBL
WINYAH BAY       2200   53      80/ 12     1026.0S
LAKE MURRAY      2200   58      30/  3/  6 1025.4R
ACE BASIN NERRS  2200   59      90/  5     1026.0R
FORT PULASKI     2300   54 61   60/ 17/ 21 1026.1S
SAPELO ISLAND    2200   56      60/ 14     1025.0S

$$

ANZ086-088-AMZ330-350-352-354-374-454-470-170000-
...C-MAN AND BUOY OBSERVATIONS...

STATION/POSITION TIME  TEMP    WIND        PRES    WAVE   SWELL
                       AIR SEA DIR/SP/G            HT/PER HT/PER/DIR
                 (UTC) (F)     (DEG/KT/KT) (MB)    (FT/S) (FT/S/D)
FOLLY BEACH CMAN 2300   53      70/ 20/ 26 1027.2R
BUOY 41004       NOT AVBL
BUOY 41008       2300   56 63   50/ 23/ 29 1023.9F   6/ 7   3/170/13
5E ST. MARYS GA  2300      65                N/A     7/ 6
FRYING PAN BUOY  2300   53 65   70/ 23/ 27 1026.4R   8/ 8
BUOY 41025       NOT AVBL
CAPE LOOKOUT NC  2300   47      40/ 25/ 32 1028.6R
BUOY 41002       NOT AVBL
BUOY 41010       2300   71 76   40/ 19/ 23 1019.1R   9/ 8
BUOY 41012       NOT AVBL
ST AUGUSTINE FL  2300   62      30/ 26/ 29 1022.2F


$$


USA.gov is the U.S. government's official web portal to all federal, state and local government web resources and services.